Campo, CA

1:48 AM PDT on March 24, 2017 (GMT -0700)
Campo

Weather History for KCZZ - November, 2010

Change the Weather History Date:

Friday, November 12, 2010

  Actual Average Record
Temperature  
Mean Temperature 57 °F 54 °F  
Max Temperature 65 °F 71 °F 87 °F (1999)
Min Temperature 48 °F 37 °F 21 °F (2000)
Degree Days  
Heating Degree Days 8 11  
Month to date heating degree days 122 115  
Since 1 July heating degree days 454 325  
Cooling Degree Days 0 0  
Month to date cooling degree days 0 0  
Year to date cooling degree days 655 839  
Growing Degree Days 3 (Base 50)    
Moisture  
Dew Point 14 °F    
Average Humidity 20    
Maximum Humidity 29    
Minimum Humidity 10    
Precipitation  
Precipitation 0.00 in 0.03 in 1.22 in (2011)
Month to date precipitation 0.03 0.34  
Year to date precipitation 15.75 12.67  
Since 1 July precipitation 3.16  
Sea Level Pressure  
Sea Level Pressure 30.20 in    
Wind  
Wind Speed 17 mph (NE)    
Max Wind Speed 26 mph    
Max Gust Speed 33 mph    
T = Trace of Precipitation, MM = Missing Value Source: NWS Daily Summary

Daily Weather History Graph

Daily Weather History Graph

Search for Another Location

Airport or City:

Trip Planner

Search our weather history database for the weather conditions in past years. The results will help you decide how hot, cold, wet, or windy it might be!

Date:

Astronomy

Nov. 12, 2010 Rise Set
Actual Time 6:13 AM PST 4:46 PM PST
Civil Twilight 5:47 AM PST 5:12 PM PST
Nautical Twilight 5:17 AM PST 5:42 PM PST
Astronomical Twilight 4:48 AM PST 6:11 PM PST
Moon 11:47 AM PST (11/12) 10:54 PM PST (11/12)
Length of Visible Light 11h 25m
Length of Day
10h 33m
Waxing Crescent, 42% of the Moon is Illuminated
Nov 12
Waxing Crescent
Nov 13
First Quarter
Nov 21
Full
Nov 28
Last Quarter
Dec 5
New

Hourly Weather History & Observations

Time (PST) Temp. Windchill Dew Point Humidity Pressure Visibility Wind Dir Wind Speed Gust Speed Precip Events Conditions
12:52 AM 50.0 °F - 17.1 °F 27% 30.19 in - ENE 9.2 mph 16.1 mph N/A   Unknown
1:52 AM 53.1 °F - 15.1 °F 22% 30.18 in - NE 15.0 mph - N/A   Unknown
2:52 AM 53.1 °F - 14.0 °F 21% 30.19 in - NE 13.8 mph 26.5 mph N/A   Unknown
3:52 AM 53.1 °F - 14.0 °F 21% 30.20 in - NE 17.3 mph 25.3 mph N/A   Unknown
4:52 AM 53.1 °F - 15.1 °F 22% 30.22 in - NE 13.8 mph 23.0 mph N/A   Unknown
5:52 AM 53.1 °F - 15.1 °F 22% 30.23 in - NE 11.5 mph 21.9 mph N/A   Unknown
6:52 AM 53.1 °F - 16.0 °F 23% 30.25 in - NE 19.6 mph 25.3 mph N/A   Unknown
7:52 AM 55.0 °F - 18.0 °F 23% 30.27 in - NE 19.6 mph 25.3 mph N/A   Unknown
8:52 AM 57.9 °F - 17.1 °F 20% 30.26 in - ENE 23.0 mph 27.6 mph N/A   Unknown
9:52 AM 61.0 °F - 17.1 °F 18% 30.25 in - ENE 21.9 mph 27.6 mph N/A   Unknown
10:52 AM 61.0 °F - 14.0 °F 16% 30.25 in - ENE 25.3 mph 31.1 mph N/A   Unknown
11:52 AM 64.0 °F - 14.0 °F 14% 30.22 in - East 19.6 mph 27.6 mph N/A   Unknown
12:52 PM 64.0 °F - 7.0 °F 11% 30.20 in - NE 18.4 mph 27.6 mph N/A   Unknown
1:52 PM 64.9 °F - 8.1 °F 11% 30.17 in - NE 16.1 mph 27.6 mph N/A   Unknown
2:52 PM 64.0 °F - 9.0 °F 12% 30.17 in - NE 12.7 mph 23.0 mph N/A   Unknown
3:52 PM 62.1 °F - 9.0 °F 12% 30.16 in - ENE 12.7 mph - N/A   Unknown
4:52 PM 57.0 °F - 12.9 °F 18% 30.17 in - NE 11.5 mph - N/A   Unknown
5:52 PM 51.1 °F - 15.1 °F 24% 30.19 in - NE 9.2 mph - N/A   Unknown
6:52 PM 46.0 °F 42.5 °F 16.0 °F 30% 30.20 in - ENE 6.9 mph - N/A   Unknown
7:52 PM 46.0 °F 42.5 °F 16.0 °F 30% 30.20 in - NE 6.9 mph - N/A   Unknown
8:52 PM 46.9 °F - 16.0 °F 29% 30.19 in - ENE 5.8 mph - N/A   Unknown
9:52 PM 42.8 °F 40.1 °F 17.6 °F 36% 30.22 in - NE 4.6 mph - N/A   Unknown
10:52 PM 42.1 °F - 17.1 °F 37% 30.17 in - Calm Calm - N/A   Unknown
11:52 PM 39.9 °F 36.7 °F 17.1 °F 40% 30.16 in - North 4.6 mph - N/A   Unknown